Everett, WA
on Wednesday, January 2, 2013

Wednesday
Previous Day Next Day
Daily Summary
 ActualAverageRecord
Temperature
Mean Temperature °F °F  
Max Temperature 46°F 43°F 60°F (1964)
Min Temperature 32°F 32°F 9°F (1950)
Degree Days
Heating Degree Days 26    
Moisture
Dew Point 23°F   
Average Humidity 55    
Maximum Humidity 80    
Minimum Humidity 40    
Precipitation
Precipitation 0.00 in in in ()
Wind
Wind Speed 4 mph   
Max Wind Speed 12 mph   
Max Gust Speed 17 mph   
Visibility 10 miles   
Events     
Averages and records for this station are not official NWS values.
Key: T is trace of precipitation, MM is missing value
Source: NWS Daily Summary
Seasonal Weather Averages
Time(PST)TemperatureDew PointHumidity Pressure Visibility Wind DirectionWind SpeedGust SpeedPrecipitationEvents Conditions
12:53 AM 32.0°F 26.6°F 80% 30.34 in 10.0 miles Calm Calm - N/A   Clear
1:53 AM 36.0°F 28.0°F 73% 30.34 in 10.0 miles East 3.5 mph - N/A   Clear
2:53 AM 35.1°F 26.1°F 70% 30.33 in 10.0 miles East 4.6 mph - N/A   Clear
3:53 AM 35.6°F 24.8°F 65% 30.30 in 10.0 miles ESE 3.5 mph - N/A   Clear
4:53 AM 34.0°F 25.0°F 70% 30.31 in 10.0 miles East 3.5 mph - N/A   Clear
5:53 AM 37.0°F 23.0°F 57% 30.29 in 10.0 miles East 6.9 mph - N/A   Clear
6:53 AM 37.4°F 21.2°F 52% 30.28 in 10.0 miles Calm Calm - N/A   Clear
7:53 AM 37.0°F 21.9°F 54% 30.29 in 10.0 miles East 8.1 mph - N/A   Clear
8:53 AM 37.9°F 19.9°F 48% 30.30 in 10.0 miles ESE 9.2 mph 17.3 mph N/A   Clear
9:53 AM 39.0°F 21.0°F 49% 30.31 in 10.0 miles ESE 5.8 mph - N/A   Clear
10:53 AM 42.1°F 21.0°F 43% 30.30 in 10.0 miles Variable 4.6 mph - N/A   Clear
11:53 AM 43.0°F 21.9°F 43% 30.29 in 10.0 miles SSE 4.6 mph - N/A   Clear
12:53 PM 45.0°F 21.9°F 40% 30.27 in 10.0 miles SSE 8.1 mph - N/A   Clear
1:53 PM 46.0°F 25.0°F 44% 30.26 in 10.0 miles South 9.2 mph - N/A   Clear
2:53 PM 46.0°F 24.1°F 42% 30.25 in 10.0 miles SSE 11.5 mph - N/A   Clear
3:53 PM 41.0°F 32.0°F 70% 30.26 in 10.0 miles Calm Calm - N/A   Clear
4:53 PM 37.9°F 30.9°F 76% 30.26 in 10.0 miles Calm Calm - N/A   Clear
5:53 PM 39.2°F 23.0°F 52% 30.23 in 10.0 miles East 3.5 mph - N/A   Clear
6:53 PM 37.9°F 21.0°F 51% 30.24 in 10.0 miles East 5.8 mph - N/A   Clear
7:53 PM 36.0°F 19.9°F 52% 30.22 in 10.0 miles East 4.6 mph - N/A   Clear
8:53 PM 36.0°F 19.9°F 52% 30.22 in 10.0 miles ESE 6.9 mph - N/A   Clear
9:53 PM 36.0°F 19.0°F 50% 30.21 in 10.0 miles ESE 6.9 mph - N/A   Clear
10:53 PM 35.1°F 18.0°F 50% 30.20 in 10.0 miles ESE 6.9 mph - N/A   Clear
11:53 PM 37.4°F 17.6°F 45% 30.17 in 10.0 miles ESE 8.1 mph - N/A   Clear
Moon Phase
Jan. 02 Jan. 04 Jan. 11 Jan. 18 Jan. 26
Sunrise:07:58 AM (PST) Moon Rise:10:34 PM (PST)1/2
Sunset:04:28 PM (PST) Moon Set:10:17 AM (PST)1/2

Copyright © 2014 The Weather Underground, Inc.